Regional Weather Roundup
Issued by NWS

Home | Current Version | Previous Version | Graphics & Text | Print | Product List | Glossary On
Versions: 1 2 3 4 5 6 7 8 9 10 11 12 13 14 15 16 17 18 19 20 21 22 23 24 25 26 27 28 29 30 31 32 33 34 35 36 37 38 39 40 41 42 43 44 45 46 47 48 49 50
000
ASUS44 KMEG 012100
RWRTN
TENNESSEE HOURLY STATE WEATHER ROUNDUP
NATIONAL WEATHER SERVICE MEMPHIS TN
400 PM CDT SAT AUG 01 2015

TNZ002-004-019-021-049-052-054-088>092-012200-
WEST TENNESSEE

CITY           SKY/WX    TMP DP  RH WIND       PRES   REMARKS
MEMPHIS INTL   MOSUNNY   96  61  31 N10       29.98F HX  96
NWS MEMPHIS      N/A     93 N/A N/A MISG        N/A
JACKSON        MOSUNNY   95  61  32 NW10      29.98F HX  95
DYERSBURG        N/A    N/A N/A N/A MISG        N/A
PARIS          MOSUNNY   88  66  48 CALM      30.00F HX  90
LEXINGTON      SUNNY     90  63  40 CALM      29.97F HX  90
$$

TNZ008-025-027-028-033-062-065-066-012200-
NORTH MIDDLE TENNESSEE

CITY           SKY/WX    TMP DP  RH WIND       PRES   REMARKS
NASHVILLE      MOSUNNY   92  63  38 N8        29.98F HX  93
CLARKSVILLE    MOSUNNY   88  68  51 N9        29.98F HX  91
CROSSVILLE     SUNNY     85  55  35 NE9       30.04F
$$

TNZ061-075-076-078-094-096-097-012200-
SOUTH MIDDLE TENNESSEE

CITY           SKY/WX    TMP DP  RH WIND       PRES   REMARKS
FAYETTEVILLE   MOSUNNY   90  57  33 MISG      29.99S
TULLAHOMA      SUNNY     88  57  35 E8        30.01F
WINCHESTER     SUNNY     90  63  40 NE9       29.99F HX  90
MCMINNVILLE    SUNNY     88  64  45 VRB6      30.00S
COLUMBIA       SUNNY     93  64  38 N7        29.97F HX  95
SHELBYVILLE    SUNNY     91  64  40 NE6       29.99F HX  93
$$

TNZ017-018-042-046-047-012200-
NORTHEAST TENNESSEE

CITY           SKY/WX    TMP DP  RH WIND       PRES   REMARKS
TRI CITIES     MOSUNNY   86  56  35 NW6       29.99F
ELIZABETHTON   CLEAR     81  59  47 NW3       30.00F
$$

TNZ012-013-036-069-073-074-012200-
CENTRAL EAST TENNESSEE

CITY           SKY/WX    TMP DP  RH WIND       PRES   REMARKS
KNOXVILLE      MOSUNNY   89  59  36 E5        29.97F
OAK RIDGE      SUNNY     91  58  32 VRB3      29.98F HX  90
GATLINBURG     PTCLDY    88  55  33 CALM      29.97F
$$

TNZ083-085-099-012200-
SOUTHEAST TENNESSEE

CITY           SKY/WX    TMP DP  RH WIND       PRES   REMARKS
CHATTANOOGA    MOSUNNY   91  62  37 NE9       29.96F HX  91
$$

SKY/WX REPORTED AS FAIR MEANS FEW OR NO CLOUDS BELOW
12 THOUSAND FEET.




USA.gov is the U.S. government's official web portal to all federal, state and local government web resources and services.